Back to catalog

COSMOS 2594

AliveMilitarySSO
NORAD 65270·PAYLOAD·🇷🇺 Russia

Launched Aug 21, 2025 from Plesetsk Cosmodrome

Loading…

Next Passes (next 24 hours)

TLE

FreshSource: Space-Track

Epoch: Sep 14, 2026, 13:02 UTC

1 65270U 25182D   26257.54344583  .00073408  39011-5  17759-3 0  9999
2 65270  96.5836 186.7336 0006547 115.3108 244.8849 15.96423788 61968

Track COSMOS 2594 in real time with AllMySat

Download on the App Store